EW7910 Weather Reports


time (UTC)temp
C
wind
direction
speed
KPH
gust
KPH
rain 1hr
cm
rain 24hr
cm
rain mn
cm
humidity
%
barometer
mb
20260504030048 11 169 9.7 20.9 0.00 0.00 0.00 51 1008.8
20260504024547 11 179 6.4 24.1 0.00 0.00 0.00 50 1008.7
20260504023034 12 158 12.9 25.7 0.00 0.00 0.00 49 1008.8
20260504021530 12 153 11.3 25.7 0.00 0.00 0.00 49 1008.9
20260504020008 11 241 8.0 19.3 0.00 0.00 0.00 50 1009.1
20260504014502 12 173 11.3 20.9 0.00 0.00 0.00 48 1009.2
20260504013056 12 195 3.2 20.9 0.00 0.00 0.00 47 1009.2
20260504011543 12 176 8.0 20.9 0.00 0.00 0.00 47 1009.2
20260504010038 12 139 8.0 29.0 0.00 0.00 0.00 47 1009.1
20260504004542 12 160 12.9 35.4 0.00 0.00 0.00 47 1009.0
20260504003029 12 215 9.7 37.0 0.00 0.00 0.00 49 1009.5
20260504001525 12 170 16.1 30.6 0.00 0.00 0.00 47 1009.4
20260504000021 12 180 16.1 38.6 0.00 0.00 0.00 47 1009.5
20260503234516 12 233 14.5 33.8 0.00 0.00 0.00 46 1009.3
20260503233056 12 169 4.8 29.0 0.00 0.00 0.00 46 1009.2
20260503231555 12 175 11.3 33.8 0.00 0.00 0.00 46 1009.2
20260503230050 12 176 27.4 57.9 0.00 0.00 0.00 46 1009.5
20260503224542 12 223 12.9 38.6 0.00 0.00 0.00 45 1009.4
20260503223037 12 207 12.9 33.8 0.00 0.00 0.00 46 1009.4
20260503221533 13 172 12.9 48.3 0.00 0.00 0.00 44 1009.2
20260503220030 13 221 9.7 33.8 0.00 0.00 0.00 42 1009.1
20260503214521 13 231 12.9 41.8 0.00 0.00 0.00 42 1009.0
20260503213103 13 264 14.5 38.6 0.00 0.00 0.00 39 1009.1
20260503211603 14 153 9.7 30.6 0.00 0.00 0.00 40 1008.9
20260503210033 14 254 19.3 35.4 0.00 0.00 0.00 38 1008.7
20260503204531 14 231 9.7 38.6 0.00 0.00 0.00 40 1009.0
20260503203006 14 89 12.9 43.5 0.00 0.00 0.00 40 1009.1
20260503201502 14 159 16.1 38.6 0.00 0.00 0.00 39 1009.3
20260503200047 15 47 20.9 38.6 0.00 0.00 0.00 38 1009.6
20260503194545 14 144 11.3 43.5 0.00 0.00 0.00 38 1009.7
20260503193041 13 199 9.7 38.6 0.00 0.00 0.00 40 1009.9
20260503191533 13 216 16.1 41.8 0.00 0.00 0.00 40 1010.1
20260503190039 13 139 16.1 48.3 0.00 0.00 0.00 38 1010.4
20260503184524 13 169 9.7 30.6 0.00 0.00 0.00 37 1010.8
20260503183020 13 218 17.7 40.2 0.00 0.00 0.00 38 1010.9
20260503181515 12 194 20.9 41.8 0.00 0.00 0.00 40 1011.2
20260503180054 12 70 8.0 33.8 0.00 0.00 0.00 38 1011.4
20260503174604 11 171 8.0 35.4 0.00 0.00 0.00 44 1011.8
20260503173028 11 221 14.5 27.4 0.00 0.00 0.00 41 1012.0
20260503171523 11 283 9.7 33.8 0.00 0.00 0.00 44 1012.1
20260503081537 1 134 0.0 0.0 0.00 0.00 0.00 87 1013.6
20260503071600 2 216 0.0 0.0 0.00 0.00 0.00 86 1013.6
20260503054547 3 229 3.2 12.9 0.00 0.00 0.00 81 1014.0
20260503053044 3 188 0.0 0.0 0.00 0.00 0.00 81 1014.0
20260503051527 3 162 0.0 3.2 0.00 0.00 0.00 79 1014.2
20260503050027 3 184 0.0 11.3 0.00 0.00 0.00 79 1014.4
20260503044527 3 220 0.0 1.6 0.00 0.00 0.00 79 1014.3
20260503043025 3 187 0.0 3.2 0.00 0.00 0.00 78 1014.5
20260503041525 3 176 0.0 6.4 0.00 0.00 0.00 78 1014.5
20260503040025 3 172 0.0 0.0 0.00 0.00 0.00 77 1014.6
20260503034523 3 183 0.0 6.4 0.00 0.00 0.00 76 1014.7
20260503033028 3 186 0.0 3.2 0.00 0.00 0.00 75 1014.7
20260503031523 3 203 0.0 0.0 0.00 0.00 0.00 75 1014.7